User: anonymous   Login
Location: Unspecified
(51.0950°N, 12.9690°E)
Time: 12:37:06
(UTC+00:00)
Language:

AIST 2D - Orbit

View from above orbital plane
View from above orbital plane
View from above satellite
View from above satellite

Ground track
Ground track

The orbit data is extracted from the following two-line orbital elements,

1 41465U 16026B   24103.86309260  .02045587  21802-5  83543-3 0  9994
2 41465  96.9207 340.4828 0005627 188.1226 302.4762 16.23364349447237
Epoch (UTC): 12 April 2024 20:42:51
Eccentricity: 0.0005627
inclination: 96.9207°
perigee height: 207 km
apogee height: 214 km
right ascension of ascending node: 340.4828°
argument of perigee: 188.1226°
revolutions per day: 16.23364349
mean anomaly at epoch: 302.4762°
orbit number at epoch: 44723

The dashed part of the orbit path shows where the satellite is in the earth's shadow,  

DLR